User: anonymous   Login
Location: Unspecified
(0.0000°N, 0.0000°E)
Time: 15:46:41
(UTC+00:00)
Language:

SOHLA-1 (MAIDO-1) - Orbit

View from above orbital plane
View from above orbital plane
View from above satellite
View from above satellite

Ground track
Ground track

The orbit data is extracted from the following two-line orbital elements,

1 33496U 09002E   21331.84396273  .00000087  00000-0  22306-4 0  9990
2 33496  98.3338 188.2609 0005001 266.1039  93.9596 14.71971218689227
Epoch (UTC): 27 November 2021 20:15:18
Eccentricity: 0.0005001
inclination: 98.3338°
perigee height: 651 km
apogee height: 658 km
right ascension of ascending node: 188.2609°
argument of perigee: 266.1039°
revolutions per day: 14.71971218
mean anomaly at epoch: 93.9596°
orbit number at epoch: 68922

The dashed part of the orbit path shows where the satellite is in the earth's shadow,  

DLR